Find Starlink 4021

NORAD ID: 53149 Int'l Des: 2022-083 Owner: SPXS Country: US Constellation: starlink operational
LEOCIRCULAR

当前视图

正在加载3D地球...

About Starlink 4021

Starlink 4021 (NORAD 53149) is a starlink constellation satellite (v1.5) launched Jul 17, 2022 by SPXS of US. It operates in LEO, CIRCULAR orbit with a mass of 297.00 kg.

即将过境

Passes for default location (London). Set your location on the main map for personalized predictions.

高度历史

Loading altitude history...

两行轨道根数

1 53149U 22083T 26237.39181069 .00000935 00000-0 38819-4 0 9994
2 53149 53.1609 117.5834 0001186 95.0960 265.0178 15.34389483226953
Epoch: Aug 25, 2026 • Age: 7 hours

当前状态

高度 480.9 km
远地点 / 近地点 N/A
速度 7.62 km/s
星下点 -50.22°S, 174.85°W
发射日期 Jul 17, 2022
运行时间 4.1 years
类型 internet

技术详情

分类 Payload
质量 297.00 kg
干质量 275.00 kg
总质量 297.00 kg
长度 0.20 m
直径 2.80 m
跨度 9.00 m
形状 Box + pan
制造商 SPXS
平台类型 Starlink
阶段状态 In Orbit
所有者/国家 SPXS/US

Most Searched